When you browse on this site, cookies collect data to enhance your experience and personalize the content and advertising you see.
Visit our Privacy Policy to learn more. By continuing to use the site, you agree to this use of cookies and data.
  • In Spain
  • List of Countries
  • For 7 days
  • Water Temperature
  • Weather Map
  • Weather Widgets
  • user-avatar
    Login

    Hourly Weather Viseu

    Today, 4 June, Thursday

    Time Temperature Precipitation Wind Pressure Humidity
    00:00 +15°C° 0 mm 1 mps 716 mmHg 97%
    01:00 +15°C° 0 mm 1 mps 716 mmHg 97%
    02:00 +15°C° 0 mm 1 mps 715 mmHg 96%
    03:00 +15°C° 0 mm 1 mps 715 mmHg 96%
    04:00 +15°C° 0 mm 1 mps 715 mmHg 96%
    05:00 +15°C° 0 mm 1 mps 715 mmHg 96%
    06:00 +16°C° 0 mm 2 mps 716 mmHg 86%
    07:00 +17°C° 0 mm 2 mps 716 mmHg 76%
    08:00 +19°C° 0 mm 2 mps 717 mmHg 66%
    09:00 +20°C° 0 mm 3 mps 717 mmHg 59%
    10:00 +21°C° 0 mm 4 mps 717 mmHg 51%
    11:00 +23°C° 0 mm 4 mps 717 mmHg 43%
    12:00 +23°C° 0 mm 4 mps 717 mmHg 43%
    13:00 +23°C° 0 mm 5 mps 717 mmHg 43%
    14:00 +23°C° 0 mm 5 mps 717 mmHg 43%
    15:00 +22°C° 0 mm 4 mps 717 mmHg 46%
    16:00 +21°C° 0 mm 4 mps 717 mmHg 50%
    17:00 +20°C° 0 mm 3 mps 716 mmHg 53%
    18:00 +18°C° 0 mm 3 mps 717 mmHg 64%
    19:00 +15°C° 0 mm 2 mps 717 mmHg 74%
    20:00 +13°C° 0 mm 1 mps 718 mmHg 84%
    21:00 +13°C° 0 mm 1 mps 718 mmHg 87%
    22:00 +12°C° 0 mm 1 mps 718 mmHg 89%
    23:00 +11°C° 0 mm 0 mps 718 mmHg 92%

    Tomorrow, 5 June, Friday

    Time Temperature Precipitation Wind Pressure Humidity
    00:00 +10°C° 0 mm 0 mps 718 mmHg 92%
    01:00 +10°C° 0 mm 0 mps 718 mmHg 93%
    02:00 +10°C° 0 mm 0 mps 718 mmHg 93%
    03:00 +11°C° 0 mm 0 mps 718 mmHg 91%
    04:00 +11°C° 0 mm 0 mps 718 mmHg 89%
    05:00 +12°C° 0 mm 0 mps 718 mmHg 87%
    06:00 +15°C° 0 mm 1 mps 718 mmHg 78%
    07:00 +18°C° 0 mm 1 mps 719 mmHg 69%
    08:00 +21°C° 0 mm 1 mps 719 mmHg 60%
    09:00 +22°C° 0 mm 1 mps 719 mmHg 54%
    10:00 +24°C° 0 mm 1 mps 719 mmHg 48%
    11:00 +26°C° 0 mm 2 mps 719 mmHg 42%
    12:00 +26°C° 0 mm 2 mps 719 mmHg 42%
    13:00 +26°C° 0 mm 3 mps 719 mmHg 41%
    14:00 +26°C° 0 mm 3 mps 719 mmHg 41%
    15:00 +25°C° 0 mm 3 mps 719 mmHg 45%
    16:00 +24°C° 0 mm 3 mps 718 mmHg 50%
    17:00 +21°C° 0 mm 3 mps 718 mmHg 55%
    18:00 +19°C° 0 mm 3 mps 718 mmHg 66%
    19:00 +16°C° 0 mm 2 mps 718 mmHg 77%
    20:00 +14°C° 0 mm 1 mps 718 mmHg 89%
    21:00 +13°C° 0 mm 1 mps 718 mmHg 91%
    22:00 +13°C° 0 mm 1 mps 718 mmHg 93%
    23:00 +13°C° 0 mm 1 mps 718 mmHg 95%

    Day after tomorrow, 6 June, Saturday

    Time Temperature Precipitation Wind Pressure Humidity
    00:00 +13°C° 0 mm 1 mps 718 mmHg 94%
    01:00 +13°C° 0 mm 1 mps 718 mmHg 93%
    02:00 +13°C° 0 mm 1 mps 718 mmHg 93%
    03:00 +13°C° 0 mm 1 mps 718 mmHg 92%
    04:00 +14°C° 0 mm 1 mps 718 mmHg 91%
    05:00 +14°C° 0 mm 1 mps 718 mmHg 90%
    06:00 +15°C° 0 mm 1 mps 718 mmHg 86%
    07:00 +16°C° 0 mm 1 mps 718 mmHg 82%
    08:00 +16°C° 0 mm 1 mps 718 mmHg 78%
    09:00 +18°C° 0 mm 1 mps 718 mmHg 75%
    10:00 +18°C° 0 mm 2 mps 718 mmHg 72%
    11:00 +19°C° 0 mm 2 mps 718 mmHg 69%
    12:00 +19°C° 0 mm 2 mps 718 mmHg 68%
    13:00 +20°C° 0 mm 3 mps 717 mmHg 67%
    14:00 +20°C° 0 mm 3 mps 717 mmHg 66%
    15:00 +19°C° 0 mm 3 mps 717 mmHg 67%
    16:00 +19°C° 0 mm 3 mps 717 mmHg 69%
    17:00 +19°C° 0 mm 3 mps 717 mmHg 70%
    18:00 +17°C° 0 mm 3 mps 717 mmHg 77%
    19:00 +16°C° 0 mm 2 mps 717 mmHg 84%
    20:00 +14°C° 0 mm 2 mps 717 mmHg 91%
    21:00 +13°C° 0 mm 1 mps 717 mmHg 93%
    22:00 +13°C° 0 mm 1 mps 717 mmHg 95%
    23:00 +11°C° 0 mm 0 mps 717 mmHg 97%

    7 June, Sunday

    Time Temperature Precipitation Wind Pressure Humidity
    00:00 +11°C° 0 mm 0 mps 717 mmHg 96%
    01:00 +11°C° 0 mm 0 mps 717 mmHg 96%
    02:00 +11°C° 0 mm 0 mps 717 mmHg 96%
    03:00 +11°C° 0 mm 0 mps 717 mmHg 95%
    04:00 +12°C° 0 mm 0 mps 717 mmHg 94%
    05:00 +12°C° 0 mm 0 mps 717 mmHg 93%
    06:00 +13°C° 0 mm 0 mps 718 mmHg 89%
    07:00 +14°C° 0 mm 0 mps 718 mmHg 84%
    08:00 +16°C° 0 mm 1 mps 718 mmHg 79%
    09:00 +18°C° 0 mm 1 mps 718 mmHg 75%
    10:00 +19°C° 0 mm 1 mps 718 mmHg 71%
    11:00 +19°C° 0 mm 2 mps 718 mmHg 67%
    12:00 +20°C° 0 mm 2 mps 718 mmHg 64%
    13:00 +21°C° 0 mm 2 mps 718 mmHg 60%
    14:00 +21°C° 0 mm 3 mps 718 mmHg 57%
    15:00 +21°C° 0 mm 3 mps 718 mmHg 59%
    16:00 +20°C° 0 mm 3 mps 718 mmHg 61%
    17:00 +20°C° 0 mm 3 mps 718 mmHg 63%
    18:00 +18°C° 0 mm 2 mps 718 mmHg 71%
    19:00 +15°C° 0 mm 2 mps 718 mmHg 80%
    20:00 +13°C° 0 mm 1 mps 718 mmHg 89%
    21:00 +12°C° 0 mm 1 mps 719 mmHg 90%
    22:00 +11°C° 0 mm 0 mps 719 mmHg 91%
    23:00 +10°C° 0 mm 0 mps 719 mmHg 92%

    8 June, Monday

    Time Temperature Precipitation Wind Pressure Humidity
    00:00 +10°C° 0 mm 0 mps 719 mmHg 92%
    01:00 +11°C° 0 mm 1 mps 718 mmHg 92%
    02:00 +11°C° 0 mm 1 mps 718 mmHg 92%
    03:00 +11°C° 0 mm 1 mps 719 mmHg 90%
    04:00 +11°C° 0 mm 1 mps 719 mmHg 89%
    05:00 +10°C° 0 mm 2 mps 719 mmHg 87%
    06:00 +14°C° 0 mm 2 mps 719 mmHg 77%
    07:00 +16°C° 0 mm 2 mps 720 mmHg 67%
    08:00 +18°C° 0 mm 3 mps 720 mmHg 56%
    09:00 +20°C° 0 mm 3 mps 720 mmHg 51%
    10:00 +21°C° 0 mm 2 mps 720 mmHg 45%
    11:00 +24°C° 0 mm 2 mps 720 mmHg 40%
    12:00 +24°C° 0 mm 2 mps 720 mmHg 37%
    13:00 +25°C° 0 mm 2 mps 720 mmHg 35%
    14:00 +25°C° 0 mm 2 mps 719 mmHg 33%
    15:00 +25°C° 0 mm 2 mps 719 mmHg 36%
    16:00 +24°C° 0 mm 2 mps 719 mmHg 39%
    17:00 +23°C° 0 mm 2 mps 719 mmHg 43%
    18:00 +19°C° 0 mm 2 mps 719 mmHg 52%
    19:00 +18°C° 0 mm 1 mps 719 mmHg 62%
    20:00 +13°C° 0 mm 0 mps 719 mmHg 71%
    21:00 +14°C° 0 mm 1 mps 719 mmHg 71%
    22:00 +14°C° 0 mm 1 mps 719 mmHg 71%
    23:00 +13°C° 0 mm 1 mps 719 mmHg 71%

    9 June, Tuesday

    Time Temperature Precipitation Wind Pressure Humidity
    00:00 +13°C° 0 mm 2 mps 719 mmHg 69%
    01:00 +13°C° 0 mm 2 mps 719 mmHg 68%
    02:00 +12°C° 0 mm 3 mps 719 mmHg 66%
    03:00 +12°C° 0 mm 3 mps 719 mmHg 68%
    04:00 +12°C° 0 mm 4 mps 720 mmHg 69%
    05:00 +12°C° 0 mm 4 mps 720 mmHg 71%
    06:00 +14°C° 0 mm 4 mps 720 mmHg 63%
    07:00 +17°C° 0 mm 4 mps 720 mmHg 56%
    08:00 +19°C° 0 mm 4 mps 721 mmHg 49%
    09:00 +21°C° 0 mm 4 mps 721 mmHg 45%
    10:00 +23°C° 0 mm 4 mps 721 mmHg 41%
    11:00 +25°C° 0 mm 4 mps 721 mmHg 37%
    12:00 +26°C° 0 mm 3 mps 721 mmHg 35%
    13:00 +27°C° 0 mm 3 mps 721 mmHg 32%
    14:00 +28°C° 0 mm 2 mps 720 mmHg 30%
    15:00 +27°C° 0 mm 2 mps 720 mmHg 32%
    16:00 +27°C° 0 mm 2 mps 720 mmHg 34%
    17:00 +26°C° 0 mm 2 mps 720 mmHg 36%
    18:00 +24°C° 0 mm 2 mps 720 mmHg 41%
    19:00 +20°C° 0 mm 2 mps 720 mmHg 46%
    20:00 +18°C° 0 mm 2 mps 720 mmHg 51%
    21:00 +17°C° 0 mm 2 mps 720 mmHg 51%
    22:00 +17°C° 0 mm 2 mps 721 mmHg 50%
    23:00 +16°C° 0 mm 2 mps 721 mmHg 50%
    Show more